Weather History for Rickenbacker, OH

Change the Weather History Date:

Saturday, March 2, 2013

  Actual Average Record
Temperature  
Mean Temperature 30 °F -  
Max Temperature 31 °F 44 °F 62 °F (2004)
Min Temperature 28 °F 28 °F 15 °F (2009)
Degree Days  
Heating Degree Days 36    
Moisture  
Dew Point 21 °F    
Average Humidity 69    
Maximum Humidity 77    
Minimum Humidity 61    
Precipitation  
Precipitation 0.00 in - - ()
Sea Level Pressure  
Sea Level Pressure 30.01 in    
Wind  
Wind Speed 9 mph (NNW)    
Max Wind Speed 13 mph    
Max Gust Speed -    
Visibility 9 miles    
Events Snow    
Averages and records for this station are not official NWS values.
T = Trace of Precipitation, MM = Missing Value Source: NWS Daily Summary

Daily Weather History Graph

Daily Weather History Graph

Search for Another Location

Airport:

Trip Planner

Search our weather history database for the weather conditions in past years. The results will help you decide how hot, cold, wet, or windy it might be!

Date:

Astronomy

Mar. 02, 2013 Rise Set
Actual Time 7:03 AM EST 6:25 PM EST
Civil Twilight 6:35 AM EST 6:52 PM EST
Nautical Twilight 6:04 AM EST 7:23 PM EST
Astronomical Twilight 5:33 AM EST 7:54 PM EST
Moon No Moon Rise 9:30 AM EST (3/2)
Length of Visible Light 12h 16m
Length of Day
11h 22m
Waning Gibbous, 74% of the Moon is Illuminated
Mar 2
Waning Gibbous
Mar 4
Last Quarter
Mar 11
New
Mar 19
First Quarter
Mar 27
Full

Hourly Weather History & Observations

Time (EST) Temp. Windchill Dew Point Humidity Pressure Visibility Wind Dir Wind Speed Gust Speed Precip Events Conditions
12:15 AM 30.2 °F 22.6 °F 18.1 °F 61% 30.02 in 10.0 mi North 8.1 mph - N/A   Overcast
12:35 AM 30.2 °F 22.6 °F 18.3 °F 61% 30.02 in 10.0 mi North 8.1 mph - N/A   Overcast
12:55 AM 30.0 °F 23.2 °F 18.9 °F 63% 30.02 in 10.0 mi North 6.9 mph - N/A   Overcast
1:15 AM 30.0 °F 21.7 °F 19.8 °F 66% 30.02 in 10.0 mi North 9.2 mph - N/A   Overcast
1:35 AM 30.0 °F 23.2 °F 20.1 °F 67% 30.02 in 10.0 mi NNE 6.9 mph - N/A   Overcast
1:55 AM 29.8 °F 21.5 °F 20.1 °F 67% 30.02 in 10.0 mi NNE 9.2 mph - N/A   Overcast
2:15 AM 29.7 °F 21.3 °F 19.9 °F 67% 30.02 in 10.0 mi North 9.2 mph - N/A   Overcast
2:35 AM 29.5 °F 20.4 °F 19.4 °F 66% 30.02 in 10.0 mi North 10.4 mph - N/A   Overcast
2:55 AM 29.3 °F 20.8 °F 19.2 °F 66% 30.01 in 10.0 mi North 9.2 mph - N/A   Overcast
3:15 AM 29.1 °F 20.6 °F 19.2 °F 67% 30.01 in 10.0 mi North 9.2 mph - N/A   Overcast
3:35 AM 28.9 °F 21.9 °F 19.8 °F 69% 30.00 in 10.0 mi North 6.9 mph - N/A   Overcast
3:55 AM 28.9 °F 22.8 °F 20.3 °F 70% 30.00 in 10.0 mi North 5.8 mph - N/A   Overcast
4:15 AM 28.9 °F 22.8 °F 20.1 °F 70% 29.99 in 10.0 mi NNW 5.8 mph - N/A   Overcast
4:35 AM 28.9 °F 22.8 °F 19.8 °F 69% 29.99 in 10.0 mi NW 5.8 mph - N/A   Overcast
4:55 AM 28.9 °F 20.4 °F 20.1 °F 70% 29.99 in 10.0 mi NNW 9.2 mph - N/A   Overcast
5:15 AM 28.9 °F 20.4 °F 20.1 °F 70% 29.99 in 10.0 mi NNW 9.2 mph - N/A   Overcast
5:35 AM 28.9 °F 21.1 °F 20.3 °F 70% 30.00 in 10.0 mi NW 8.1 mph - N/A   Overcast
5:55 AM 28.8 °F 21.7 °F 21.2 °F 73% 30.00 in 7.0 mi NW 6.9 mph - N/A Snow Light Snow
6:15 AM 28.4 °F 21.2 °F 21.9 °F 77% 30.00 in 7.0 mi NNW 6.9 mph - N/A Snow Light Snow
6:35 AM 28.4 °F 21.2 °F 22.1 °F 77% 30.00 in 5.0 mi NNW 6.9 mph - N/A Snow Light Snow
6:55 AM 28.4 °F 21.2 °F 21.9 °F 77% 30.01 in 7.0 mi NNW 6.9 mph - N/A Snow Light Snow
7:15 AM 28.4 °F 20.4 °F 22.1 °F 77% 30.01 in 5.0 mi NNW 8.1 mph - N/A Snow Light Snow
7:35 AM 28.4 °F 21.2 °F 22.1 °F 77% 30.01 in 5.0 mi NNW 6.9 mph - N/A Snow Light Snow
7:55 AM 28.4 °F 21.2 °F 21.6 °F 76% 30.01 in 10.0 mi NNW 6.9 mph - N/A   Overcast
8:15 AM 28.8 °F 20.9 °F 21.4 °F 74% 30.02 in 7.0 mi NNW 8.1 mph - N/A Snow Light Snow
8:35 AM 28.9 °F 21.1 °F 21.4 °F 73% 30.02 in 7.0 mi NNW 8.1 mph - N/A Snow Light Snow
8:55 AM 28.9 °F 21.1 °F 21.4 °F 73% 30.02 in 7.0 mi NNW 8.1 mph - N/A Snow Light Snow
9:15 AM 29.3 °F 21.5 °F 21.6 °F 73% 30.02 in 10.0 mi NNW 8.1 mph - N/A   Overcast
9:35 AM 29.3 °F 20.8 °F 21.9 °F 74% 30.02 in 4.0 mi NNW 9.2 mph - N/A Snow Light Snow
9:55 AM 29.7 °F 21.3 °F 22.3 °F 74% 30.02 in 10.0 mi NNW 9.2 mph - N/A   Overcast
10:15 AM 29.8 °F 21.5 °F 22.5 °F 74% 30.02 in 7.0 mi NNW 9.2 mph - N/A Snow Light Snow
10:35 AM 30.4 °F 22.2 °F 22.1 °F 71% 30.02 in 10.0 mi NW 9.2 mph - N/A Snow Light Snow
10:55 AM 30.6 °F 22.4 °F 21.9 °F 70% 30.02 in 10.0 mi NW 9.2 mph - N/A   Overcast
11:15 AM 30.2 °F 22.6 °F 21.7 °F 71% 30.02 in 10.0 mi NNW 8.1 mph - N/A Snow Light Snow
11:35 AM 30.2 °F 21.9 °F 22.1 °F 72% 30.02 in 5.0 mi NNW 9.2 mph - N/A Snow Light Snow
11:55 AM 30.7 °F 22.6 °F 21.4 °F 68% 30.02 in 10.0 mi NW 9.2 mph - N/A   Overcast
12:15 PM 30.9 °F 23.5 °F 20.7 °F 66% 30.02 in 7.0 mi NW 8.1 mph - N/A Snow Light Snow
12:35 PM 30.9 °F 22.8 °F 20.7 °F 66% 30.01 in 7.0 mi NNW 9.2 mph - N/A Snow Light Snow
12:55 PM 30.9 °F 22.8 °F 20.1 °F 64% 30.01 in 10.0 mi NW 9.2 mph - N/A   Overcast
1:15 PM 30.6 °F 22.4 °F 20.8 °F 67% 30.01 in 7.0 mi NNW 9.2 mph - N/A Snow Light Snow
1:35 PM 30.6 °F 23.8 °F 21.2 °F 68% 30.00 in 10.0 mi NW 6.9 mph - N/A   Overcast
1:55 PM 30.9 °F 22.2 °F 21.2 °F 67% 30.00 in 10.0 mi NW 10.4 mph - N/A Snow Light Snow
2:15 PM 30.7 °F 21.4 °F 21.0 °F 67% 30.00 in 10.0 mi NNW 11.5 mph - N/A Snow Light Snow
2:35 PM 31.1 °F 22.4 °F 21.4 °F 67% 30.00 in 10.0 mi NW 10.4 mph - N/A Snow Light Snow
2:55 PM 31.3 °F 22.1 °F 21.6 °F 67% 30.00 in 10.0 mi NW 11.5 mph - N/A   Overcast
3:15 PM 31.6 °F 22.1 °F 20.8 °F 64% 29.99 in 10.0 mi NW 12.7 mph - N/A   Overcast
3:35 PM 31.8 °F 23.3 °F 20.1 °F 62% 29.99 in 10.0 mi NW 10.4 mph - N/A   Overcast
3:55 PM 31.6 °F 22.6 °F 19.9 °F 62% 30.00 in 10.0 mi NW 11.5 mph - N/A   Overcast
4:15 PM 31.8 °F 23.3 °F 20.1 °F 62% 30.00 in 10.0 mi NW 10.4 mph - N/A   Overcast
4:35 PM 31.3 °F 21.6 °F 20.5 °F 64% 30.00 in 7.0 mi NW 12.7 mph - N/A Snow Light Snow
4:55 PM 30.9 °F 22.8 °F 20.8 °F 66% 30.00 in 10.0 mi NW 9.2 mph - N/A   Overcast
5:15 PM 30.9 °F 21.7 °F 20.1 °F 64% 30.01 in 10.0 mi NW 11.5 mph - N/A   Overcast
5:35 PM 30.9 °F 22.2 °F 19.6 °F 63% 30.01 in 10.0 mi NNW 10.4 mph - N/A Snow Light Snow
5:55 PM 30.4 °F 22.9 °F 20.8 °F 68% 30.01 in 7.0 mi NW 8.1 mph - N/A Snow Light Snow
6:15 PM 30.2 °F 21.9 °F 21.0 °F 69% 30.02 in 10.0 mi NW 9.2 mph - N/A   Overcast
6:35 PM 30.2 °F 20.8 °F 20.5 °F 67% 30.02 in 10.0 mi NNW 11.5 mph - N/A Snow Light Snow
6:55 PM 30.0 °F 20.5 °F 21.2 °F 70% 30.03 in 10.0 mi NW 11.5 mph - N/A Snow Light Snow
7:15 PM 29.7 °F 22.8 °F 21.0 °F 70% 30.03 in 10.0 mi NW 6.9 mph - N/A   Overcast
7:35 PM 29.8 °F 21.5 °F 21.0 °F 70% 30.03 in 10.0 mi NW 9.2 mph - N/A   Overcast
7:55 PM 29.7 °F 20.1 °F 20.5 °F 69% 30.03 in 10.0 mi NW 11.5 mph - N/A   Overcast
8:15 PM 29.3 °F 20.8 °F 20.3 °F 69% 30.04 in 10.0 mi NW 9.2 mph - N/A   Overcast
8:35 PM 29.3 °F 21.5 °F 20.5 °F 70% 30.04 in 10.0 mi NW 8.1 mph - N/A Snow Light Snow
8:55 PM 29.3 °F 22.3 °F 20.1 °F 69% 30.04 in 10.0 mi NW 6.9 mph - N/A Snow Light Snow
9:15 PM 29.3 °F 20.8 °F 20.1 °F 69% 30.04 in 10.0 mi NW 9.2 mph - N/A Snow Light Snow
9:35 PM 29.1 °F 20.6 °F 19.9 °F 69% 30.04 in 10.0 mi NW 9.2 mph - N/A Snow Light Snow
9:55 PM 29.1 °F 21.3 °F 20.1 °F 69% 30.04 in 10.0 mi NW 8.1 mph - N/A   Overcast
10:15 PM 29.1 °F 21.3 °F 19.8 °F 68% 30.03 in 10.0 mi NW 8.1 mph - N/A   Overcast
10:35 PM 28.9 °F 21.9 °F 19.8 °F 69% 30.03 in 10.0 mi NW 6.9 mph - N/A   Overcast
10:55 PM 28.9 °F 22.8 °F 19.4 °F 68% 30.03 in 10.0 mi WNW 5.8 mph - N/A   Overcast
11:15 PM 28.9 °F 21.1 °F 19.4 °F 68% 30.03 in 10.0 mi NW 8.1 mph - N/A   Overcast
11:35 PM 28.8 °F 20.2 °F 18.7 °F 66% 30.03 in 10.0 mi WNW 9.2 mph - N/A   Overcast
11:55 PM 28.8 °F 20.2 °F 18.3 °F 65% 30.03 in 10.0 mi WNW 9.2 mph - N/A   Overcast